Wind_Speed
29 31 32 33 33 33 33 32 32 32 31 29 28 28 27 25 25 24 22 21 22 23 25 26 28 28 28 28 29 29 29 30 29 29 29 29 30 31 31 33 32 33 33
29 31 32 34 35 35 35 33 34 34 34 32 30 30 28 27 26 25 24 23 22 24 23 25 26 27 28 29 29 30 29 30 30 30 30 30 31 31 32 33 34 34 35
30 32 33 34 35 35 35 35 35 35 35 33 32 30 30 28 26 26 25 25 26 25 25 24 24 26 27 29 30 29 29 29 30 30 30 31 31 33 34 35 36 36 37
29 31 33 34 33 34 35 35 35 35 35 34 34 32 31 30 28 27 26 26 25 24 24 24 24 25 26 27 29 30 29 30 31 31 31 32 34 35 35 36 36 37 38
27 29 31 32 33 33 34 35 35 35 35 34 34 33 32 31 30 29 28 27 26 26 25 25 24 25 25 26 27 28 29 30 30 31 32 34 35 35 36 36 37 38 38
26 27 29 31 32 33 34 35 35 35 35 35 34 34 33 31 30 29 28 27 27 27 26 26 26 26 26 27 28 29 29 30 30 31 32 33 34 34 36 37 38 39 39
24 26 27 29 30 32 32 33 34 35 35 34 34 34 33 32 31 30 29 28 28 27 27 27 28 29 28 28 29 30 30 30 31 32 33 34 36 36 37 37 38 40 40
21 23 24 26 28 29 30 31 31 32 33 33 33 33 32 32 32 32 30 30 29 28 28 28 29 29 29 30 30 31 32 32 33 34 35 35 36 36 36 38 40 42 43
20 21 22 23 25 27 28 29 30 30 31 32 32 31 31 32 31 31 30 29 28 28 28 28 28 29 30 31 32 32 32 33 33 34 35 35 35 35 36 38 40 42 44
18 20 20 22 24 25 26 27 28 29 30 30 31 31 31 31 31 31 31 30 30 29 28 29 28 29 30 30 31 31 31 33 33 33 34 34 35 36 37 39 40 42 44
18 18 20 21 22 24 25 26 27 28 29 30 30 31 31 31 30 31 30 29 29 28 29 29 29 29 30 30 30 31 31 32 32 33 33 35 36 37 38 39 40 42 43
16 18 19 21 23 24 25 26 27 28 28 28 29 30 30 30 30 30 30 29 29 29 29 29 30 30 30 30 30 32 33 33 34 34 35 36 37 37 38 39 40 41 42
16 17 18 20 21 23 24 25 26 27 26 27 27 28 29 29 30 30 30 29 29 28 29 29 29 29 30 30 31 32 32 33 34 35 35 36 36 37 38 39 40 40 41
17 17 18 19 19 20 21 22 24 25 25 26 26 27 27 27 27 26 27 27 27 29 29 29 29 29 29 30 30 31 32 32 33 33 34 34 35 36 37 37 38 38 38
17 17 16 17 17 18 18 19 20 22 22 23 23 24 25 24 24 25 26 26 26 26 27 27 27 27 28 29 29 30 31 32 32 32 32 33 34 34 34 34 34 33 33
17 16 16 17 17 18 19 19 19 19 20 21 22 22 22 23 23 23 23 23 24 24 25 25 25 26 27 28 29 29 30 30 30 31 31 31 31 31 30 30 30 29 29
16 16 17 18 17 17 17 17 18 19 19 19 19 20 20 21 21 21 21 21 21 22 23 24 25 25 26 27 27 28 28 28 28 29 28 28 28 28 28 28 27 27 26
16 17 17 17 17 17 17 16 16 17 17 17 18 18 18 18 18 18 18 19 19 20 20 21 22 23 24 25 25 25 26 26 26 26 26 26 26 26 26 26 25 24 24
17 17 16 16 15 15 15 15 16 16 16 16 17 17 17 17 16 16 16 17 17 18 18 19 20 21 21 22 22 23 24 24 24 24 23 23 23 23 23 23 22 22 21
15 15 15 14 14 14 14 15 15 14 14 14 15 15 15 15 15 15 15 16 16 17 17 18 18 19 19 20 21 21 21 21 21 20 21 21 21 21 21 21 20 20 19
14 13 13 12 12 13 13 13 13 13 13 13 13 12 13 13 14 14 14 15 15 16 16 17 17 17 18 18 18 18 18 18 18 18 19 19 19 19 19 19 18 18 17
13 12 11 11 11 11 12 11 11 11 11 12 12 12 12 13 13 13 13 13 14 14 14 14 15 15 16 16 16 16 16 16 16 16 17 17 17 18 17 17 16 16 16
11 10 9 9 9 10 10 9 9 9 9 10 10 10 11 11 11 11 11 12 12 12 12 12 12 13 13 13 13 13 14 14 15 15 15 16 16 16 16 15 15 14 14
9 8 6 6 6 6 6 6 6 7 7 7 8 8 8 9 9 9 9 9 9 10 10 10 10 10 11 11 11 12 13 13 14 14 15 15 14 14 14 14 13 13 13
6 5 4 5 4 3 3 4 4 4 4 5 6 6 7 7 7 7 7 7 8 8 8 8 9 9 9 10 10 11 12 13 13 13 13 13 13 13 13 12 12 12 11
6 5 5 5 5 5 4 4 3 3 3 4 4 5 5 5 5 5 6 6 6 7 7 8 8 8 9 9 10 11 11 11 11 12 12 11 11 11 11 11 10 10 10
Wind_Direction
253 251 248 247 247 248 249 250 252 256 260 263 265 269 273 274 277 277 274 268 266 261 261 257 256 257 257 257 255 254 254 255 255 256 258 260 262 265 269 271 273 274 275
252 251 249 247 246 247 249 249 251 255 258 261 265 268 274 276 275 275 275 270 269 269 269 265 262 259 259 258 257 256 256 256 256 258 260 263 264 266 268 271 273 273 275
253 252 250 249 247 247 248 249 249 252 257 260 264 268 271 275 276 273 273 275 273 274 272 266 263 261 259 256 254 256 258 257 259 260 262 262 264 267 268 272 274 275 276
254 253 251 249 248 248 248 249 249 252 256 260 265 267 270 272 274 274 274 275 275 275 275 268 264 263 260 257 253 254 257 260 261 262 262 263 265 268 269 271 273 275 278
257 255 252 249 247 246 246 248 250 252 255 258 261 264 266 269 272 275 276 274 275 274 273 271 270 266 262 259 257 257 258 261 263 263 264 267 268 270 270 271 272 275 277
261 257 252 249 247 246 246 246 249 252 254 256 259 262 265 267 268 271 272 272 274 272 270 267 268 265 262 260 259 260 262 263 264 265 267 268 268 270 272 274 275 276 277
263 258 253 251 249 248 248 248 250 252 253 256 258 261 263 265 266 270 271 270 273 271 268 265 264 262 261 260 261 262 264 265 266 268 270 270 271 272 274 276 277 279 280
264 259 254 252 248 249 250 250 250 252 254 256 258 260 262 264 266 269 270 270 269 267 265 264 262 262 262 261 264 268 267 267 269 269 270 271 272 274 276 278 279 281 282
268 261 255 252 250 250 250 250 250 252 253 255 258 260 262 265 266 267 268 268 267 264 263 263 264 264 263 265 268 270 269 269 271 271 271 272 274 277 278 280 282 283 285
272 265 259 256 254 253 253 253 252 253 254 255 258 261 263 263 264 266 268 267 266 266 265 266 266 266 266 268 270 270 270 270 271 273 275 277 279 281 282 283 284 285 287
273 267 262 260 257 255 255 255 255 256 257 258 259 261 263 264 264 265 266 267 267 268 267 267 268 268 269 271 272 273 274 276 277 279 279 280 282 283 283 285 286 288 289
276 268 265 265 263 261 261 259 259 259 261 260 260 263 265 265 265 265 266 265 266 266 268 269 269 270 271 272 274 275 277 279 281 283 283 284 285 285 286 287 289 290 291
282 275 271 272 268 265 263 262 260 261 262 263 264 265 263 264 266 265 265 265 265 267 268 269 271 273 273 274 277 279 280 282 283 284 285 285 286 286 287 289 289 290 291
286 282 277 273 271 270 265 262 261 261 263 264 265 264 264 265 265 264 264 266 267 266 268 271 272 273 274 276 279 281 281 282 284 284 284 285 287 287 288 289 290 290 291
288 284 280 276 273 274 272 268 266 265 266 268 268 267 266 266 267 267 268 268 268 267 267 268 270 273 275 277 279 280 282 283 284 285 287 287 288 288 290 291 291 292 293
290 284 281 279 277 278 277 273 271 270 270 273 272 270 270 270 271 271 272 272 271 271 271 273 275 277 278 279 280 282 283 284 286 287 287 287 288 290 291 292 292 293 294
290 284 280 275 276 278 278 275 274 273 272 274 276 276 274 272 272 272 273 273 274 275 276 277 276 278 279 281 283 285 286 286 286 287 287 288 289 290 291 291 292 292 293
290 284 279 279 279 276 275 276 276 277 276 276 276 275 276 274 272 272 273 275 275 276 280 279 278 280 282 283 284 286 286 287 288 288 289 290 291 291 291 292 292 293 295
293 287 285 286 283 278 275 276 278 280 280 280 278 277 278 279 281 282 285 284 283 283 284 283 282 282 284 285 287 287 288 288 288 289 289 291 291 292 292 291 292 293 294
297 292 289 285 280 277 277 277 278 279 282 284 285 283 282 282 285 288 288 287 286 285 285 284 283 284 286 289 290 291 292 292 292 292 292 293 293 293 293 293 292 293 294
299 294 292 286 281 279 279 280 281 283 285 288 290 289 286 285 285 286 287 285 285 286 287 286 286 286 288 291 293 294 294 294 294 294 295 296 296 296 296 295 294 295 296
304 299 293 290 288 285 281 281 283 284 286 288 287 287 286 286 285 286 286 287 289 290 291 290 290 292 293 294 295 297 297 297 298 299 300 299 299 300 299 298 298 298 299
312 308 302 295 291 288 282 277 281 283 286 288 288 291 291 289 288 289 289 291 292 293 294 296 296 298 300 300 302 303 303 303 304 305 305 305 305 305 304 302 302 302 301
321 320 321 313 304 298 288 283 286 290 292 296 299 303 301 299 298 296 295 296 299 302 303 306 306 307 308 309 309 309 308 308 309 309 309 308 308 308 309 308 306 305 303
351 353 1 2 360 347 331 321 316 309 306 311 318 318 319 316 311 309 309 309 310 315 317 318 318 318 318 318 317 316 316 316 316 315 314 313 312 312 312 311 309 307 304
18 21 23 25 27 26 22 15 13 6 355 351 351 349 347 344 339 334 332 332 330 329 329 329 331 330 328 327 326 327 326 325 324 322 321 320 318 317 317 317 316 314 311
Height
5803 5803 5804 5806 5808 5810 5812 5814 5815 5817 5818 5819 5820 5820 5820 5821 5822 5823 5823 5823 5823 5823 5823 5825 5827 5828 5830 5832 5834 5836 5837 5838 5840 5841 5842 5843 5843 5844 5844 5844 5845 5844 5844
5796 5796 5798 5800 5802 5803 5806 5808 5810 5811 5812 5814 5815 5816 5815 5816 5817 5818 5818 5819 5818 5819 5819 5820 5821 5822 5824 5826 5828 5830 5832 5833 5834 5835 5836 5837 5838 5837 5837 5837 5837 5837 5836
5789 5789 5791 5792 5794 5796 5799 5801 5803 5805 5806 5807 5809 5810 5811 5811 5812 5812 5812 5813 5814 5814 5815 5815 5816 5817 5818 5820 5822 5824 5826 5827 5828 5829 5830 5830 5830 5831 5831 5830 5830 5830 5829
5782 5782 5784 5786 5788 5790 5792 5794 5796 5798 5800 5802 5803 5805 5806 5807 5807 5806 5807 5808 5809 5809 5810 5810 5811 5812 5813 5814 5816 5818 5819 5821 5821 5822 5822 5823 5823 5824 5824 5824 5823 5822 5822
5776 5776 5778 5780 5782 5783 5785 5787 5789 5792 5794 5796 5797 5799 5800 5802 5802 5802 5802 5803 5803 5804 5804 5805 5806 5807 5808 5809 5810 5811 5813 5814 5814 5815 5816 5816 5816 5816 5816 5816 5815 5815 5814
5770 5770 5771 5773 5775 5777 5779 5781 5783 5785 5788 5790 5791 5793 5794 5796 5796 5796 5796 5797 5798 5798 5799 5800 5801 5801 5802 5803 5805 5805 5806 5807 5807 5808 5808 5808 5808 5808 5807 5807 5806 5806 5806
5764 5764 5765 5767 5769 5771 5773 5775 5777 5779 5781 5783 5785 5786 5788 5789 5790 5790 5790 5791 5792 5793 5793 5794 5795 5795 5797 5798 5799 5799 5800 5800 5800 5800 5801 5801 5801 5800 5799 5799 5798 5797 5796
5758 5758 5759 5761 5763 5765 5766 5768 5770 5772 5775 5777 5779 5780 5781 5782 5783 5784 5785 5785 5786 5787 5787 5788 5788 5789 5790 5791 5792 5792 5793 5793 5793 5793 5793 5793 5792 5792 5791 5790 5789 5788 5787
5753 5754 5755 5756 5757 5759 5761 5762 5764 5766 5768 5770 5772 5773 5775 5776 5777 5778 5779 5779 5780 5780 5781 5782 5782 5783 5783 5784 5785 5785 5786 5786 5786 5786 5785 5784 5784 5783 5782 5781 5780 5779 5776
5750 5750 5751 5751 5753 5754 5755 5757 5758 5760 5762 5764 5765 5767 5768 5769 5770 5771 5771 5772 5773 5774 5774 5775 5775 5776 5777 5777 5777 5778 5778 5778 5778 5777 5777 5776 5775 5774 5774 5772 5771 5768 5766
5746 5746 5747 5747 5748 5749 5750 5751 5753 5754 5756 5757 5759 5760 5761 5762 5763 5764 5764 5765 5766 5767 5768 5768 5769 5769 5770 5770 5770 5771 5771 5770 5770 5769 5768 5768 5767 5766 5764 5763 5761 5759 5756
5742 5742 5743 5743 5743 5744 5745 5746 5747 5748 5750 5751 5752 5753 5754 5755 5756 5756 5757 5758 5759 5760 5760 5761 5761 5762 5762 5763 5763 5763 5763 5762 5761 5761 5760 5759 5758 5756 5755 5753 5751 5749 5747
5739 5739 5739 5739 5738 5739 5739 5740 5741 5742 5743 5744 5745 5746 5747 5748 5749 5750 5750 5751 5752 5753 5753 5754 5754 5755 5755 5756 5755 5755 5755 5754 5753 5752 5751 5750 5748 5747 5745 5744 5742 5739 5737
5735 5735 5734 5734 5734 5734 5734 5734 5735 5736 5737 5738 5739 5739 5740 5741 5742 5742 5743 5744 5745 5746 5746 5747 5747 5748 5748 5748 5748 5747 5747 5746 5744 5743 5742 5741 5739 5738 5736 5734 5732 5729 5727
5731 5730 5730 5730 5729 5729 5729 5729 5729 5730 5731 5732 5732 5733 5733 5734 5735 5736 5736 5737 5738 5738 5739 5739 5740 5740 5740 5740 5740 5739 5738 5737 5736 5735 5733 5732 5730 5728 5726 5724 5722 5720 5718
5727 5726 5725 5725 5725 5724 5724 5724 5724 5725 5726 5726 5727 5727 5728 5728 5728 5729 5730 5730 5730 5731 5732 5732 5733 5733 5733 5732 5732 5731 5730 5729 5728 5726 5725 5723 5721 5720 5718 5716 5714 5712 5710
5723 5722 5721 5721 5720 5720 5720 5720 5720 5720 5720 5721 5721 5722 5722 5722 5723 5723 5723 5724 5724 5725 5725 5725 5726 5726 5725 5725 5724 5723 5722 5721 5720 5718 5717 5715 5714 5712 5710 5708 5707 5705 5702
5719 5718 5717 5716 5716 5715 5715 5715 5715 5715 5716 5716 5716 5717 5717 5717 5717 5717 5718 5718 5718 5719 5719 5719 5719 5719 5719 5718 5717 5716 5715 5714 5712 5711 5710 5708 5706 5705 5703 5701 5699 5698 5696
5715 5713 5712 5711 5711 5711 5711 5711 5711 5712 5712 5712 5712 5712 5713 5713 5713 5713 5713 5713 5714 5714 5714 5713 5713 5713 5712 5712 5711 5710 5708 5707 5706 5705 5703 5701 5700 5698 5696 5695 5693 5691 5690
5711 5710 5708 5708 5707 5707 5707 5707 5707 5708 5708 5708 5708 5708 5708 5709 5709 5709 5709 5709 5709 5709 5709 5708 5708 5707 5707 5706 5705 5704 5702 5701 5700 5699 5697 5695 5694 5692 5690 5689 5687 5686 5684
5708 5707 5705 5705 5704 5704 5704 5704 5704 5704 5704 5705 5705 5705 5705 5705 5705 5705 5705 5705 5704 5704 5704 5703 5703 5702 5702 5701 5700 5698 5697 5696 5695 5693 5692 5690 5688 5687 5685 5683 5682 5680 5679
5705 5704 5703 5702 5701 5701 5701 5701 5701 5701 5701 5702 5702 5702 5702 5701 5701 5701 5701 5701 5700 5700 5699 5699 5698 5697 5697 5696 5695 5694 5693 5691 5690 5689 5687 5685 5684 5682 5680 5678 5677 5676 5674
5703 5701 5700 5699 5699 5698 5698 5698 5698 5698 5699 5699 5699 5698 5698 5698 5698 5698 5698 5697 5697 5696 5696 5695 5694 5694 5693 5692 5691 5690 5689 5687 5686 5684 5683 5681 5679 5678 5676 5674 5673 5671 5670
5701 5700 5698 5698 5697 5697 5696 5696 5696 5696 5696 5696 5696 5696 5695 5695 5695 5695 5695 5695 5694 5694 5693 5692 5692 5691 5690 5689 5688 5687 5685 5684 5682 5681 5679 5677 5676 5674 5672 5671 5669 5668 5667
5700 5699 5698 5698 5697 5696 5696 5695 5694 5694 5694 5694 5694 5694 5693 5693 5693 5693 5692 5692 5692 5691 5691 5690 5689 5688 5688 5687 5685 5684 5683 5681 5679 5678 5676 5674 5673 5671 5670 5668 5666 5665 5664
5701 5700 5699 5698 5697 5696 5696 5695 5695 5694 5694 5694 5694 5693 5693 5692 5692 5691 5691 5690 5690 5690 5689 5689 5688 5687 5686 5685 5683 5682 5680 5679 5677 5675 5674 5672 5670 5669 5667 5666 5664 5663 5661